Regional Weather Roundup
Issued by NWS

Home | Current Version | Previous Version | Text Only | Print | Product List | Glossary Off
Versions: 1 2 3 4 5 6 7 8 9 10 11 12 13 14 15 16 17 18 19 20 21 22 23 24 25 26 27 28 29 30 31 32 33 34 35 36 37 38 39 40 41 42 43 44 45 46 47 48 49 50

000
ASUS43 KBIS 241910
RWRND

NORTH DAKOTA REGIONAL WEATHER ROUNDUP
NATIONAL WEATHER SERVICE BISMARCK ND
200 PM CDT TUE APR 24 2018

NOTE: "FAIR" INDICATES FEW OR NO CLOUDS BELOW 12,000 FEET WITH NO
SIGNIFICANT WEATHER AND/OR OBSTRUCTIONS TO VISIBILITY.


NDZ001>003-009>011-017-242000-
NORTHWEST NORTH DAKOTA

CITY           SKY/WX    TMP DP  RH WIND       PRES   REMARKS
WILLISTON      SUNNY     57  21  24 CALM      30.44F
MINOT          SUNNY     58  21  24 NW10G22   30.41F
MINOT AFB      SUNNY     56  22  27 NW7       30.40R
$$

NDZ018>021-031>035-040>046-242000-
SOUTHWEST NORTH DAKOTA

CITY           SKY/WX    TMP DP  RH WIND       PRES   REMARKS
BISMARCK       SUNNY     55  25  31 N20       30.44F
DICKINSON      SUNNY     52  19  27 MISG      30.44F
GARRISON         N/A     53  22  29 VRB6      30.43F
HETTINGER ARPT SUNNY     47  27  45 N9G21     30.48F
$$

NDZ004>008-012>016-024-026-027-054-242000-
NORTHEAST NORTH DAKOTA

CITY           SKY/WX    TMP DP  RH WIND       PRES   REMARKS
GRAND FORKS    FAIR      50  32  50 N24G31    30.38F
GRND FRKS AFB  FAIR      51  27  38 N21G28    30.38R
DEVILS LAKE    FAIR      50  27  40 N17G24    30.41F
$$

NDZ022-023-025-028>030-036>039-047>053-242000-
SOUTHEAST NORTH DAKOTA

CITY           SKY/WX    TMP DP  RH WIND       PRES   REMARKS
FARGO          FAIR      53  34  48 NW21      30.36S
JAMESTOWN      SUNNY     54  30  40 N16G26    30.38F
$$





USA.gov is the U.S. government's official web portal to all federal, state and local government web resources and services.